| time (UTC) | temp F | wind direction | speed knots | gust knots | rain 1hr in | rain 24hr in | rain mn in | humidity % | barometer mb |
| 20260508100029 | 43 | 317 | 3.5 | 7.0 | 0.00 | 0.00 | 0.00 | 67 | 1005.4 |
| 20260508094527 | 43 | 292 | 1.7 | 5.2 | 0.00 | 0.00 | 0.00 | 68 | 1005.0 |
| 20260508093028 | 42 | 267 | 1.7 | 6.1 | 0.00 | 0.00 | 0.00 | 68 | 1005.1 |
| 20260508091532 | 42 | 333 | 3.5 | 7.0 | 0.00 | 0.00 | 0.00 | 67 | 1004.9 |
| 20260508090031 | 42 | 280 | 3.5 | 7.0 | 0.00 | 0.00 | 0.00 | 66 | 1004.8 |
| 20260508084528 | 43 | 302 | 3.5 | 7.8 | 0.00 | 0.00 | 0.00 | 67 | 1004.6 |
| 20260508083031 | 43 | 311 | 4.3 | 7.8 | 0.00 | 0.00 | 0.00 | 65 | 1004.6 |
| 20260508081537 | 42 | 284 | 4.3 | 7.8 | 0.00 | 0.00 | 0.00 | 68 | 1004.7 |
| 20260508080031 | 41 | 286 | 1.7 | 5.2 | 0.00 | 0.00 | 0.00 | 71 | 1004.8 |
| 20260508074528 | 41 | 0 | 0.0 | 3.5 | 0.00 | 0.01 | 0.00 | 70 | 1004.6 |
| 20260508073039 | 41 | 269 | 1.7 | 5.2 | 0.00 | 0.01 | 0.00 | 69 | 1004.5 |
| 20260508071528 | 41 | 307 | 1.7 | 5.2 | 0.00 | 0.01 | 0.00 | 70 | 1004.7 |
| 20260508070054 | 40 | 287 | 0.9 | 1.7 | 0.00 | 0.01 | 0.00 | 69 | 1004.5 |
| 20260508064534 | 41 | 0 | 0.9 | 2.6 | 0.00 | 0.02 | 0.00 | 67 | 1004.6 |
| 20260508063028 | 42 | 287 | 0.0 | 2.6 | 0.00 | 0.02 | 0.00 | 66 | 1004.6 |
| 20260508061532 | 42 | 274 | 0.9 | 6.1 | 0.00 | 0.02 | 0.00 | 66 | 1004.6 |
| 20260508060032 | 42 | 293 | 1.7 | 5.2 | 0.00 | 0.02 | 0.00 | 65 | 1004.7 |
| 20260508054530 | 42 | 302 | 0.0 | 1.7 | 0.00 | 0.23 | 0.00 | 66 | 1005.0 |
| 20260508053030 | 43 | 302 | 0.9 | 4.3 | 0.00 | 0.23 | 0.00 | 67 | 1005.0 |
| 20260508051528 | 43 | 277 | 2.6 | 6.1 | 0.00 | 0.23 | 0.00 | 61 | 1004.9 |
| 20260508050030 | 43 | 277 | 1.7 | 2.6 | 0.00 | 0.23 | 0.00 | 60 | 1005.1 |
| 20260508044528 | 44 | 277 | 0.9 | 1.7 | 0.00 | 0.24 | 0.00 | 58 | 1005.2 |
| 20260508043048 | 45 | 287 | 0.9 | 5.2 | 0.00 | 0.24 | 0.00 | 57 | 1005.3 |
| 20260508041528 | 46 | 307 | 2.6 | 6.1 | 0.00 | 0.24 | 0.00 | 57 | 1005.3 |
| 20260508040032 | 46 | 317 | 2.6 | 6.1 | 0.00 | 0.24 | 0.00 | 58 | 1005.4 |
| 20260508034529 | 46 | 313 | 3.5 | 7.8 | 0.00 | 0.24 | 0.24 | 57 | 1005.6 |
| 20260508033032 | 47 | 302 | 4.3 | 7.8 | 0.00 | 0.24 | 0.24 | 56 | 1005.7 |
| 20260508031528 | 47 | 311 | 5.2 | 9.6 | 0.00 | 0.24 | 0.24 | 54 | 1005.2 |
| 20260508030042 | 48 | 290 | 5.2 | 11.3 | 0.00 | 0.24 | 0.24 | 53 | 1005.3 |
| 20260508024534 | 48 | 294 | 9.6 | 13.0 | 0.00 | 0.36 | 0.24 | 53 | 1005.1 |
| 20260508023032 | 49 | 325 | 8.7 | 11.3 | 0.00 | 0.36 | 0.24 | 54 | 1005.0 |
| 20260508021530 | 49 | 313 | 8.7 | 12.2 | 0.00 | 0.36 | 0.24 | 53 | 1005.2 |
| 20260508020028 | 50 | 303 | 10.4 | 13.9 | 0.00 | 0.36 | 0.24 | 51 | 1005.3 |
| 20260508014529 | 50 | 321 | 11.3 | 16.5 | 0.00 | 0.58 | 0.24 | 52 | 1005.5 |
| 20260508013029 | 51 | 311 | 11.3 | 17.4 | 0.00 | 0.58 | 0.24 | 50 | 1005.2 |
| 20260508011532 | 51 | 310 | 13.0 | 20.0 | 0.00 | 0.58 | 0.24 | 51 | 1005.1 |
| 20260508010031 | 52 | 319 | 14.8 | 20.0 | 0.00 | 0.58 | 0.24 | 51 | 1004.9 |
| 20260508004529 | 53 | 309 | 13.0 | 20.0 | 0.00 | 0.74 | 0.24 | 53 | 1004.7 |
| 20260508003030 | 53 | 319 | 11.3 | 16.5 | 0.00 | 0.74 | 0.24 | 56 | 1004.4 |
| 20260508001531 | 53 | 306 | 12.2 | 16.5 | 0.00 | 0.74 | 0.24 | 63 | 1004.1 |
| 20260508000029 | 52 | 331 | 6.1 | 12.2 | 0.00 | 0.74 | 0.24 | 73 | 1003.8 |
| 20260507234536 | 51 | 0 | 0.0 | 3.5 | 0.00 | 0.89 | 0.24 | 74 | 1003.6 |
| 20260507233028 | 52 | 141 | 0.9 | 3.5 | 0.00 | 0.89 | 0.24 | 73 | 1003.3 |
| 20260507231530 | 53 | 0 | 0.0 | 2.6 | 0.00 | 0.89 | 0.24 | 72 | 1003.2 |
| 20260507230032 | 53 | 0 | 0.0 | 3.5 | 0.00 | 0.89 | 0.24 | 71 | 1002.9 |
| 20260507224529 | 52 | 0 | 0.0 | 3.5 | 0.00 | 0.93 | 0.24 | 71 | 1002.8 |
| 20260507223028 | 53 | 30 | 0.9 | 6.1 | 0.00 | 0.93 | 0.24 | 70 | 1002.7 |
| 20260507221528 | 53 | 178 | 4.3 | 11.3 | 0.00 | 0.93 | 0.24 | 69 | 1002.5 |
| 20260507220030 | 53 | 222 | 2.6 | 8.7 | 0.00 | 0.93 | 0.24 | 67 | 1002.7 |
| 20260507214530 | 53 | 159 | 3.5 | 10.4 | 0.00 | 0.96 | 0.24 | 66 | 1002.6 |
| 20260507213031 | 54 | 201 | 7.0 | 13.9 | 0.00 | 0.96 | 0.24 | 65 | 1002.7 |
| 20260507211530 | 54 | 203 | 6.1 | 12.2 | 0.00 | 0.96 | 0.24 | 65 | 1002.8 |
| 20260507210029 | 55 | 184 | 5.2 | 13.9 | 0.00 | 0.96 | 0.24 | 65 | 1002.7 |
| 20260507204530 | 56 | 160 | 7.0 | 16.5 | 0.00 | 0.96 | 0.24 | 64 | 1002.5 |
| 20260507203032 | 56 | 190 | 4.3 | 14.8 | 0.00 | 0.96 | 0.24 | 64 | 1002.5 |
| 20260507201537 | 58 | 229 | 7.0 | 19.1 | 0.00 | 0.96 | 0.24 | 61 | 1002.6 |
| 20260507200027 | 57 | 204 | 7.0 | 13.9 | 0.00 | 0.96 | 0.24 | 62 | 1002.5 |
| 20260507194528 | 58 | 192 | 5.2 | 12.2 | 0.00 | 0.96 | 0.24 | 63 | 1002.6 |
| 20260507193032 | 58 | 205 | 6.1 | 13.9 | 0.00 | 0.96 | 0.24 | 64 | 1002.5 |
| 20260507191534 | 57 | 190 | 6.1 | 13.9 | 0.00 | 0.96 | 0.24 | 66 | 1002.7 |
| 20260507190031 | 58 | 242 | 7.0 | 15.6 | 0.00 | 0.96 | 0.24 | 65 | 1002.6 |
| 20260507184528 | 58 | 207 | 7.0 | 14.8 | 0.00 | 0.96 | 0.24 | 63 | 1002.7 |
| 20260507183038 | 59 | 215 | 7.0 | 13.0 | 0.00 | 0.96 | 0.24 | 63 | 1002.8 |
| 20260507181530 | 59 | 195 | 7.8 | 15.6 | 0.00 | 0.96 | 0.24 | 64 | 1002.7 |
| 20260507180032 | 55 | 162 | 9.6 | 14.8 | 0.00 | 0.96 | 0.24 | 71 | 1003.0 |
| 20260507174535 | 54 | 155 | 9.6 | 14.8 | 0.00 | 0.96 | 0.24 | 73 | 1003.2 |
| 20260507173034 | 54 | 169 | 8.7 | 13.0 | 0.00 | 0.96 | 0.24 | 72 | 1003.1 |
| 20260507171531 | 53 | 162 | 9.6 | 13.0 | 0.00 | 0.96 | 0.24 | 74 | 1003.1 |
| 20260507170030 | 52 | 170 | 8.7 | 13.9 | 0.00 | 0.96 | 0.24 | 77 | 1003.2 |
| 20260507164531 | 53 | 158 | 12.2 | 13.9 | 0.00 | 0.96 | 0.24 | 72 | 1003.4 |
| 20260507163036 | 53 | 177 | 7.8 | 13.9 | 0.00 | 0.96 | 0.24 | 73 | 1003.6 |
| 20260507161529 | 54 | 168 | 7.8 | 13.0 | 0.00 | 0.96 | 0.24 | 70 | 1003.5 |
| 20260507160035 | 53 | 160 | 7.0 | 9.6 | 0.00 | 0.96 | 0.24 | 72 | 1003.6 |
| 20260507154528 | 53 | 167 | 4.3 | 7.0 | 0.00 | 0.96 | 0.24 | 70 | 1003.9 |
| 20260507153031 | 52 | 164 | 4.3 | 7.0 | 0.00 | 0.96 | 0.24 | 75 | 1004.0 |
| 20260507151531 | 53 | 106 | 3.5 | 5.2 | 0.00 | 0.96 | 0.24 | 72 | 1004.3 |
| 20260507150030 | 52 | 85 | 1.7 | 3.5 | 0.00 | 0.96 | 0.24 | 74 | 1004.3 |
| 20260507144528 | 52 | 88 | 3.5 | 5.2 | 0.00 | 0.96 | 0.24 | 74 | 1004.4 |
| 20260507143050 | 52 | 117 | 2.6 | 3.5 | 0.00 | 0.96 | 0.24 | 75 | 1004.6 |
| 20260507141547 | 52 | 5 | 2.6 | 7.0 | 0.00 | 0.96 | 0.24 | 74 | 1004.8 |
| 20260507140032 | 51 | 5 | 1.7 | 5.2 | 0.00 | 0.96 | 0.24 | 75 | 1004.8 |
| 20260507134528 | 51 | 360 | 4.3 | 8.7 | 0.00 | 0.96 | 0.24 | 76 | 1004.8 |
| 20260507133027 | 51 | 331 | 7.0 | 11.3 | 0.00 | 0.96 | 0.24 | 77 | 1005.2 |
| 20260507131538 | 50 | 294 | 8.7 | 12.2 | 0.00 | 0.96 | 0.24 | 79 | 1005.3 |
| 20260507130040 | 50 | 330 | 8.7 | 13.0 | 0.00 | 0.96 | 0.24 | 80 | 1005.0 |
| 20260507124530 | 49 | 325 | 4.3 | 9.6 | 0.00 | 0.96 | 0.24 | 83 | 1005.0 |
| 20260507123030 | 49 | 294 | 7.8 | 13.0 | 0.00 | 0.96 | 0.24 | 84 | 1004.8 |
| 20260507121530 | 48 | 313 | 7.0 | 8.7 | 0.00 | 0.96 | 0.24 | 86 | 1004.8 |
| 20260507120030 | 48 | 323 | 3.5 | 7.8 | 0.00 | 0.96 | 0.24 | 86 | 1004.8 |
| 20260507114531 | 47 | 291 | 3.5 | 7.0 | 0.00 | 0.96 | 0.24 | 89 | 1005.4 |
| 20260507113030 | 47 | 294 | 3.5 | 7.0 | 0.00 | 0.96 | 0.24 | 88 | 1005.7 |
| 20260507111530 | 47 | 271 | 3.5 | 9.6 | 0.00 | 0.96 | 0.24 | 87 | 1005.9 |
| 20260507110030 | 47 | 287 | 7.0 | 11.3 | 0.00 | 0.96 | 0.24 | 86 | 1005.6 |
| 20260507104531 | 47 | 284 | 7.0 | 12.2 | 0.00 | 0.96 | 0.24 | 87 | 1005.6 |
| 20260507103031 | 46 | 295 | 7.0 | 12.2 | 0.00 | 0.96 | 0.24 | 88 | 1004.8 |
| 20260507101528 | 47 | 269 | 7.8 | 13.9 | 0.00 | 0.96 | 0.24 | 88 | 1004.6 |